K1KSR Weather Reports


time (UTC)temp
C
wind
direction
speed
KPH
gust
KPH
rain 1hr
cm
rain 24hr
cm
rain mn
cm
humidity
%
barometer
mb
20260507121520 9 325 0.0 4.8 0.00 2.18 0.41 85 1005.5
20260507121003 9 342 0.0 3.2 0.00 2.18 0.41 86 1005.5
20260507120508 8 51 1.6 3.2 0.00 2.18 0.41 86 1005.6
20260507120006 8 344 1.6 3.2 0.00 2.18 0.41 88 1005.6
20260507115504 8 301 1.6 3.2 0.00 2.18 0.41 89 1005.4
20260507115004 8 303 0.0 4.8 0.00 2.18 0.41 91 1005.7
20260507114509 7 211 0.0 4.8 0.00 2.18 0.41 91 1005.8
20260507114004 7 288 0.0 3.2 0.00 2.18 0.41 92 1005.8
20260507113503 7 213 0.0 3.2 0.00 2.18 0.41 93 1005.9
20260507113019 7 244 0.0 3.2 0.00 2.18 0.41 94 1006.1
20260507112507 7 159 0.0 0.0 0.00 2.18 0.41 94 1005.8
20260507112008 7 124 0.0 3.2 0.00 2.18 0.41 94 1005.6
20260507111519 7 124 0.0 4.8 0.00 2.18 0.41 94 1005.8
20260507111010 7 186 0.0 4.8 0.00 2.18 0.41 94 1006.2
20260507110506 7 196 1.6 3.2 0.00 2.18 0.41 95 1006.4
20260507110009 7 285 0.0 3.2 0.00 2.18 0.41 95 1005.9
20260507105502 7 286 0.0 3.2 0.00 2.18 0.41 96 1006.0
20260507105003 7 88 0.0 3.2 0.00 2.18 0.41 96 1005.8
20260507104509 7 216 0.0 3.2 0.00 2.18 0.41 96 1006.0
20260507104004 7 43 0.0 3.2 0.00 2.18 0.41 96 1005.3
20260507103506 7 323 0.0 3.2 0.00 2.18 0.41 96 1005.8
20260507103013 7 277 0.0 4.8 0.00 2.18 0.41 96 1005.8
20260507102506 7 181 0.0 3.2 0.00 2.18 0.41 96 1005.8
20260507102008 7 193 0.0 3.2 0.00 2.18 0.41 96 1005.7
20260507101516 7 5 0.0 3.2 0.00 2.18 0.41 96 1005.3
20260507101008 7 315 0.0 0.0 0.00 2.18 0.41 96 1005.1
20260507100508 7 360 0.0 0.0 0.00 2.18 0.41 96 1005.1
20260507100025 7 360 0.0 0.0 0.00 2.18 0.41 96 1005.3
20260507095510 7 360 0.0 0.0 0.00 2.18 0.41 95 1005.2
20260507095013 7 360 0.0 0.0 0.00 2.18 0.41 95 1004.9
20260507094507 7 360 0.0 0.0 0.00 2.18 0.41 95 1005.1
20260507094002 7 360 0.0 0.0 0.00 2.18 0.41 96 1005.0
20260507093503 7 360 0.0 3.2 0.00 2.18 0.41 96 1005.1
20260507093018 7 360 0.0 3.2 0.00 2.18 0.41 95 1005.0
20260507092504 7 360 0.0 3.2 0.00 2.18 0.41 95 1005.3
20260507092003 7 360 0.0 3.2 0.00 2.18 0.41 96 1005.2
20260507091519 7 9 0.0 3.2 0.00 2.18 0.41 96 1005.2
20260507091011 7 5 0.0 3.2 0.00 2.18 0.41 96 1005.0
20260507090510 7 274 0.0 3.2 0.00 2.18 0.41 96 1005.5
20260507090022 7 20 0.0 3.2 0.00 2.18 0.41 96 1005.3
20260507085508 7 20 0.0 3.2 0.00 2.18 0.41 96 1005.1
20260507085009 7 20 0.0 0.0 0.03 2.18 0.41 96 1005.1
20260507084525 7 20 0.0 0.0 0.03 2.18 0.41 96 1005.2
20260507084008 7 20 0.0 0.0 0.03 2.18 0.41 96 1005.3
20260507083509 8 20 0.0 0.0 0.03 2.18 0.41 96 1005.4
20260507083008 8 20 0.0 1.6 0.03 2.18 0.41 96 1005.0
20260507082503 8 20 0.0 3.2 0.03 2.18 0.41 96 1005.1
20260507082006 8 9 0.0 3.2 0.03 2.18 0.41 96 1005.1
20260507081512 8 9 0.0 3.2 0.03 2.18 0.41 96 1005.1
20260507081004 8 9 0.0 3.2 0.03 2.18 0.41 96 1004.9
20260507080505 8 20 0.0 3.2 0.03 2.18 0.41 96 1005.0
20260507080020 8 344 0.0 3.2 0.03 2.18 0.41 96 1005.0
20260507075507 8 331 0.0 3.2 0.03 2.18 0.41 96 1005.0
20260507075011 8 333 0.0 3.2 0.00 2.16 0.38 96 1004.9
20260507074524 8 55 0.0 3.2 0.00 2.16 0.38 96 1004.9
20260507074007 8 55 0.0 3.2 0.00 2.16 0.38 96 1004.9
20260507073509 8 71 0.0 3.2 0.00 2.16 0.38 95 1005.0
20260507073029 8 13 0.0 4.8 0.00 2.16 0.38 95 1004.8
20260507072510 8 13 0.0 4.8 0.00 2.16 0.38 95 1004.8
20260507072011 8 291 1.6 3.2 0.00 2.16 0.38 95 1004.8
20260507071511 8 18 0.0 3.2 0.00 2.16 0.38 95 1004.6
20260507071005 8 360 0.0 3.2 0.00 2.16 0.38 95 1004.7
20260507070504 8 65 0.0 3.2 0.00 2.16 0.38 95 1004.6
20260507070014 8 360 0.0 3.2 0.00 2.16 0.38 95 1004.5
20260507065505 8 336 0.0 3.2 0.00 2.16 0.38 96 1004.4
20260507065005 8 347 0.0 3.2 0.00 2.16 0.38 96 1004.1
20260507064523 8 340 0.0 3.2 0.00 2.16 0.38 96 1004.1
20260507064008 9 347 0.0 3.2 0.00 2.16 0.38 95 1004.0
20260507063508 9 325 0.0 3.2 0.00 2.16 0.38 95 1004.2
20260507063036 9 23 0.0 3.2 0.00 2.16 0.38 95 1004.0
20260507062509 9 23 0.0 3.2 0.00 2.16 0.38 95 1004.0
20260507062011 9 360 0.0 3.2 0.00 2.16 0.38 96 1004.0
20260507061531 9 319 0.0 4.8 0.00 2.16 0.38 96 1003.9
20260507061009 9 319 0.0 4.8 0.03 2.16 0.38 95 1003.8
20260507060509 9 15 1.6 4.8 0.03 2.16 0.38 95 1003.5
20260507060027 9 19 3.2 4.8 0.03 2.16 0.38 95 1003.6
20260507055504 9 5 1.6 4.8 0.05 2.16 0.38 95 1003.7
20260507055004 10 25 1.6 4.8 0.13 2.16 0.38 95 1003.7
20260507054517 10 15 1.6 3.2 0.18 2.16 0.38 95 1003.9
20260507054005 10 346 1.6 6.4 0.20 2.16 0.38 95 1003.8
20260507053507 10 30 1.6 6.4 0.20 2.16 0.38 95 1003.7
20260507053022 10 5 3.2 4.8 0.23 2.16 0.38 96 1003.8
20260507052509 10 352 3.2 6.4 0.25 2.16 0.38 96 1003.8
20260507052009 10 9 3.2 6.4 0.30 2.16 0.38 96 1004.2
20260507051526 10 333 1.6 4.8 0.33 2.16 0.38 96 1004.1
20260507051009 10 20 1.6 4.8 0.33 2.13 0.36 96 1004.2
20260507050508 10 23 1.6 4.8 0.36 2.13 0.36 96 1004.1
20260507050034 11 5 1.6 8.0 0.36 2.13 0.36 96 1003.9
20260507045510 11 5 3.2 8.0 0.33 2.11 0.33 96 1003.9
20260507045007 11 80 3.2 6.4 0.25 2.03 0.25 96 1004.2
20260507044515 11 161 1.6 6.4 0.23 1.98 0.20 97 1004.3
20260507044008 11 38 1.6 6.4 0.23 1.96 0.18 97 1003.8
20260507043505 11 352 3.2 6.4 0.25 1.96 0.18 97 1003.5
20260507043021 11 32 1.6 3.2 0.23 1.93 0.15 97 1003.3
20260507042506 11 327 0.0 9.7 0.20 1.91 0.13 97 1003.4
20260507042005 11 236 0.0 9.7 0.15 1.85 0.08 97 1003.5
20260507041521 11 159 0.0 4.8 0.13 1.83 0.05 97 1003.5
20260507041010 11 183 0.0 4.8 0.10 1.80 0.03 97 1003.6
20260507040511 11 26 1.6 6.4 0.08 1.78 0.00 97 1003.7
20260507040028 11 269 0.0 6.4 0.10 1.78 0.00 97 1003.6
20260507035513 11 240 0.0 6.4 0.10 1.78 1.78 97 1003.6
20260507035014 11 221 1.6 11.3 0.10 1.78 1.78 97 1003.6
20260507034535 11 271 3.2 11.3 0.08 1.75 1.75 97 1003.7
20260507034013 11 192 3.2 8.0 0.05 1.73 1.73 96 1003.6
20260507033507 11 182 1.6 8.0 0.03 1.70 1.70 97 1003.5
20260507033016 11 233 1.6 8.0 0.03 1.70 1.70 96 1003.3
20260507032504 11 287 4.8 11.3 0.03 1.70 1.70 96 1003.3
20260507032013 11 331 3.2 12.9 0.05 1.70 1.70 97 1003.2
20260507031522 11 260 4.8 12.9 0.05 1.70 1.70 97 1003.2
20260507031007 11 248 3.2 12.9 0.08 1.70 1.70 97 1003.1
20260507030508 11 241 3.2 12.9 0.08 1.70 1.70 97 1003.1
20260507030023 11 92 1.6 12.9 0.05 1.68 1.68 97 1003.1
20260507025509 11 142 4.8 12.9 0.08 1.68 1.68 97 1003.1
20260507025011 11 134 3.2 11.3 0.10 1.68 1.68 97 1003.2
20260507024527 11 245 1.6 8.0 0.10 1.68 1.68 97 1003.3
20260507024015 11 215 3.2 8.0 0.13 1.68 1.68 97 1003.4
20260507023508 11 178 1.6 6.4 0.13 1.68 1.68 96 1003.4
20260507023029 11 182 0.0 6.4 0.13 1.68 1.68 97 1003.5
20260507022507 11 200 1.6 4.8 0.13 1.68 1.68 96 1003.5
20260507022008 11 223 1.6 4.8 0.10 1.65 1.65 96 1003.7
20260507021519 11 180 1.6 11.3 0.13 1.65 1.65 96 1003.8
20260507021005 11 190 0.0 11.3 0.10 1.63 1.63 96 1003.9
20260507020506 11 225 1.6 4.8 0.10 1.63 1.63 96 1003.9
20260507020030 11 193 1.6 11.3 0.10 1.63 1.63 96 1003.9
20260507015506 11 203 1.6 11.3 0.08 1.60 1.60 96 1004.1
20260507015010 11 198 1.6 8.0 0.05 1.57 1.57 96 1004.1
20260507014524 11 161 1.6 11.3 0.05 1.57 1.57 96 1004.2
20260507014012 11 163 1.6 11.3 0.03 1.55 1.55 96 1004.3
20260507013508 11 189 1.6 6.4 0.03 1.55 1.55 96 1004.3
20260507013041 11 171 3.2 9.7 0.03 1.55 1.55 96 1004.3
20260507012508 11 180 3.2 11.3 0.03 1.55 1.55 96 1004.4
20260507012010 11 157 1.6 14.5 0.03 1.55 1.55 96 1004.4
20260507011518 11 204 3.2 14.5 0.00 1.52 1.52 96 1004.4
20260507011007 11 169 3.2 6.4 0.00 1.52 1.52 96 1004.6
20260507010507 11 166 3.2 9.7 0.00 1.52 1.52 96 1004.6
20260507010018 11 217 3.2 11.3 0.00 1.52 1.52 96 1004.7
20260507005506 11 195 1.6 12.9 0.00 1.52 1.52 96 1004.7
20260507005004 11 205 3.2 12.9 0.00 1.52 1.52 96 1004.8
20260507004503 11 171 1.6 9.7 0.00 1.52 1.52 96 1004.8
20260507004004 11 171 3.2 12.9 0.00 1.52 1.52 96 1004.8
20260507003503 11 147 1.6 20.9 0.03 1.52 1.52 96 1004.9
20260507003007 11 264 3.2 20.9 0.03 1.52 1.52 96 1004.8
20260507002506 11 285 4.8 17.7 0.03 1.52 1.52 96 1004.8
20260507002004 11 171 3.2 16.1 0.03 1.52 1.52 96 1004.8
20260507001515 11 175 3.2 12.9 0.03 1.52 1.52 96 1004.8
20260507001012 11 178 3.2 11.3 0.03 1.52 1.52 96 1004.8
20260507000504 11 222 3.2 11.3 0.03 1.52 1.52 96 1004.8
20260507000019 11 178 3.2 14.5 0.03 1.52 1.52 96 1004.9
20260506235511 11 172 3.2 14.5 0.03 1.52 1.52 96 1005.0
20260506235007 11 184 3.2 11.3 0.03 1.52 1.52 96 1005.0
20260506234528 11 182 3.2 11.3 0.03 1.52 1.52 96 1005.0
20260506234003 11 206 1.6 9.7 0.03 1.52 1.52 96 1005.0
20260506233503 11 143 1.6 9.7 0.00 1.47 1.47 96 1005.1
20260506233004 11 182 1.6 11.3 0.00 1.47 1.47 96 1005.1
20260506232502 11 148 3.2 11.3 0.00 1.47 1.47 96 1005.1
20260506232004 11 190 1.6 8.0 0.03 1.47 1.47 96 1005.1
20260506231512 11 118 3.2 8.0 0.03 1.47 1.47 96 1005.2
20260506231002 11 167 1.6 8.0 0.03 1.47 1.47 96 1005.2
20260506230504 11 163 1.6 6.4 0.05 1.47 1.47 96 1005.3
20260506230016 11 188 1.6 8.0 0.05 1.47 1.47 96 1005.3
20260506225508 11 147 3.2 11.3 0.05 1.47 1.47 96 1005.3
20260506225007 11 213 1.6 11.3 0.08 1.47 1.47 96 1005.3
20260506224520 11 164 1.6 6.4 0.13 1.47 1.47 95 1005.3
20260506224008 11 194 1.6 12.9 0.23 1.47 1.47 95 1005.4
20260506223508 12 259 1.6 12.9 0.25 1.47 1.47 96 1005.4
20260506223022 12 216 4.8 12.9 0.30 1.47 1.47 95 1005.3
20260506222506 12 180 3.2 16.1 0.33 1.47 1.47 95 1005.5
20260506222003 12 178 4.8 16.1 0.36 1.47 1.47 95 1005.5
20260506221508 12 171 3.2 12.9 0.41 1.47 1.47 95 1005.4
20260506221004 12 191 3.2 9.7 0.46 1.47 1.47 95 1005.5
20260506220504 12 232 3.2 9.7 0.46 1.45 1.45 95 1005.6
20260506220021 12 214 3.2 9.7 0.48 1.45 1.45 95 1005.5
20260506215504 12 178 1.6 12.9 0.48 1.45 1.45 95 1005.5
20260506215005 12 199 3.2 12.9 0.48 1.42 1.42 95 1005.6
20260506214516 12 195 3.2 14.5 0.46 1.37 1.37 95 1005.7
20260506214007 12 142 1.6 16.1 0.36 1.27 1.27 95 1005.7
20260506213509 12 140 4.8 16.1 0.36 1.24 1.24 95 1005.9
20260506213026 12 200 3.2 14.5 0.38 1.19 1.19 95 1005.9
20260506212510 12 206 3.2 14.5 0.46 1.17 1.17 95 1005.9
20260506212010 12 179 3.2 11.3 0.51 1.12 1.12 95 1005.9
20260506211529 12 186 1.6 8.0 0.53 1.07 1.07 95 1006.1
20260506211003 12 196 1.6 4.8 0.53 1.02 1.02 95 1006.2
20260506210508 12 207 1.6 14.5 0.53 0.99 0.99 95 1006.1
20260506210012 12 193 1.6 14.5 0.53 0.97 0.97 95 1005.9
20260506205505 12 202 1.6 12.9 0.56 0.97 0.97 95 1006.0
20260506205005 12 178 3.2 12.9 0.64 0.94 0.94 95 1006.1
20260506204516 12 249 4.8 16.1 0.69 0.91 0.91 95 1006.0
20260506204005 12 229 1.6 16.1 0.74 0.91 0.91 94 1006.0
20260506203507 12 242 3.2 17.7 0.71 0.89 0.89 94 1006.2
20260506203020 12 209 4.8 17.7 0.64 0.81 0.81 94 1006.4
20260506202513 12 215 6.4 14.5 0.56 0.71 0.71 94 1006.5
20260506202010 12 186 4.8 11.3 0.48 0.61 0.61 94 1006.7
20260506201527 12 165 3.2 11.3 0.43 0.53 0.53 94 1006.6
20260506201013 12 171 1.6 9.7 0.41 0.48 0.48 94 1006.5
20260506200509 12 185 1.6 9.7 0.41 0.46 0.46 94 1006.5
20260506200015 12 195 1.6 4.8 0.38 0.43 0.43 94 1006.5
20260506195503 12 197 0.0 4.8 0.38 0.41 0.41 93 1006.7
20260506195004 12 234 1.6 4.8 0.30 0.30 0.30 93 1007.0
20260506194511 12 180 1.6 8.0 0.23 0.23 0.23 93 1007.0
20260506194006 12 221 3.2 8.0 0.18 0.18 0.18 92 1006.8
20260506193504 12 221 1.6 6.4 0.18 0.18 0.18 92 1006.5
20260506193016 12 238 1.6 6.4 0.18 0.18 0.18 92 1006.5
20260506192507 12 175 1.6 12.9 0.15 0.15 0.15 91 1006.2
20260506192010 12 165 3.2 12.9 0.13 0.13 0.13 91 1006.3
20260506191522 12 181 1.6 4.8 0.10 0.10 0.10 90 1006.6
20260506191005 12 224 1.6 8.0 0.08 0.08 0.08 89 1006.6
20260506190507 13 188 3.2 9.7 0.05 0.05 0.05 88 1006.6
20260506190026 13 207 1.6 9.7 0.05 0.05 0.05 86 1006.7
20260506185512 13 179 1.6 9.7 0.03 0.03 0.03 85 1006.7
20260506185011 13 219 3.2 9.7 0.00 0.00 0.00 84 1006.5
20260506184509 14 168 3.2 14.5 0.00 0.00 0.00 81 1006.7
20260506184008 15 160 4.8 19.3 0.00 0.00 0.00 78 1006.7
20260506183505 15 156 6.4 19.3 0.00 0.00 0.00 77 1006.5
20260506183015 15 190 4.8 14.5 0.00 0.00 0.00 76 1006.4
20260506182504 15 252 6.4 12.9 0.00 0.00 0.00 75 1006.4
20260506182009 16 194 3.2 12.9 0.00 0.00 0.00 75 1006.5
20260506181523 16 157 4.8 12.9 0.00 0.00 0.00 77 1006.5
20260506181010 16 192 4.8 14.5 0.00 0.00 0.00 76 1006.6
20260506180508 16 162 4.8 14.5 0.00 0.00 0.00 76 1006.6
20260506180027 16 168 6.4 12.9 0.00 0.00 0.00 76 1006.7
20260506175509 16 225 3.2 12.9 0.00 0.00 0.00 76 1006.9
20260506175009 16 172 1.6 11.3 0.00 0.00 0.00 77 1006.9
20260506174528 16 173 6.4 11.3 0.00 0.00 0.00 76 1006.9
20260506174007 16 190 3.2 8.0 0.00 0.00 0.00 76 1007.1
20260506173504 16 133 3.2 12.9 0.00 0.00 0.00 76 1007.1
20260506173015 16 178 4.8 16.1 0.00 0.00 0.00 76 1007.3
20260506172503 16 271 4.8 17.7 0.00 0.00 0.00 76 1007.2
20260506172008 16 188 4.8 17.7 0.00 0.00 0.00 75 1007.4
20260506171518 16 192 3.2 11.3 0.00 0.00 0.00 76 1007.5
20260506171008 16 190 3.2 12.9 0.00 0.00 0.00 76 1007.5
20260506170509 16 160 4.8 12.9 0.00 0.00 0.00 76 1007.6
20260506170020 16 184 1.6 12.9 0.00 0.00 0.00 75 1007.7
20260506165509 16 221 4.8 11.3 0.00 0.00 0.00 76 1007.8
20260506165010 16 191 1.6 9.7 0.00 0.00 0.00 76 1007.9
20260506164525 16 170 3.2 9.7 0.00 0.00 0.00 76 1007.9
20260506164011 16 163 1.6 12.9 0.00 0.00 0.00 77 1008.0
20260506163513 16 174 3.2 12.9 0.00 0.00 0.00 77 1008.0
20260506163029 16 256 3.2 11.3 0.00 0.00 0.00 76 1008.1
20260506162508 16 190 4.8 11.3 0.00 0.00 0.00 76 1008.2
20260506162005 16 179 3.2 12.9 0.00 0.00 0.00 76 1008.3
20260506161515 16 191 1.6 12.9 0.00 0.00 0.00 76 1008.3
20260506161007 16 169 3.2 12.9 0.00 0.00 0.00 76 1008.3
20260506160508 16 198 3.2 17.7 0.00 0.00 0.00 76 1008.3
20260506160023 16 204 4.8 17.7 0.00 0.00 0.00 76 1008.5
20260506155511 16 143 3.2 12.9 0.00 0.00 0.00 76 1008.6
20260506155007 16 298 3.2 16.1 0.00 0.00 0.00 76 1008.6
20260506154524 16 192 4.8 16.1 0.00 0.00 0.00 76 1008.6
20260506154008 16 183 4.8 14.5 0.00 0.00 0.00 75 1008.6
20260506153508 16 237 3.2 9.7 0.00 0.00 0.00 75 1008.6
20260506153025 16 170 3.2 9.7 0.00 0.00 0.00 76 1008.6
20260506152511 16 215 3.2 9.7 0.00 0.00 0.00 76 1008.6
20260506152012 16 185 3.2 8.0 0.00 0.00 0.00 75 1008.6
20260506151529 16 209 3.2 9.7 0.00 0.00 0.00 75 1008.5
20260506151007 16 225 4.8 11.3 0.00 0.00 0.00 76 1008.3
20260506150505 16 232 3.2 12.9 0.00 0.00 0.00 77 1008.2
20260506150018 16 176 3.2 12.9 0.00 0.00 0.00 76 1008.0
20260506145508 16 167 3.2 12.9 0.00 0.00 0.00 76 1007.9
20260506145007 16 151 3.2 12.9 0.00 0.00 0.00 76 1008.0
20260506144527 16 346 3.2 11.3 0.00 0.00 0.00 76 1008.1
20260506144010 16 140 1.6 11.3 0.00 0.00 0.00 76 1008.2
20260506143510 16 141 3.2 9.7 0.00 0.00 0.00 77 1008.3
20260506143033 16 147 1.6 17.7 0.00 0.00 0.00 76 1008.4
20260506142513 16 169 4.8 17.7 0.00 0.00 0.00 77 1008.5
20260506142010 16 172 1.6 9.7 0.00 0.00 0.00 76 1008.8
20260506141528 16 155 1.6 9.7 0.00 0.00 0.00 77 1008.9
20260506141011 16 163 4.8 6.4 0.00 0.00 0.00 76 1009.0
20260506140512 16 183 1.6 12.9 0.00 0.00 0.00 76 1008.9
20260506140028 16 149 3.2 12.9 0.00 0.00 0.00 76 1008.9
20260506135506 16 204 1.6 4.8 0.00 0.00 0.00 77 1008.9
20260506135006 16 196 1.6 8.0 0.00 0.00 0.00 77 1008.9
20260506134520 15 175 3.2 8.0 0.00 0.00 0.00 77 1008.8
20260506134012 15 160 1.6 3.2 0.00 0.00 0.00 77 1008.6
20260506133509 15 205 1.6 8.0 0.00 0.00 0.00 78 1008.6
20260506133024 15 165 0.0 8.0 0.00 0.00 0.00 78 1008.3
20260506132512 15 202 1.6 14.5 0.00 0.00 0.00 78 1008.4
20260506132015 15 177 6.4 14.5 0.00 0.00 0.00 77 1008.6
20260506131506 15 260 3.2 9.7 0.00 0.00 0.00 78 1008.5
20260506131004 15 149 1.6 8.0 0.00 0.00 0.00 78 1008.5
20260506130504 15 169 0.0 6.4 0.00 0.00 0.00 79 1008.7
20260506130006 15 163 1.6 8.0 0.00 0.00 0.00 79 1008.6
20260506125504 14 160 3.2 9.7 0.00 0.00 0.00 79 1008.7
20260506125004 14 192 3.2 9.7 0.00 0.00 0.00 80 1008.6
20260506124508 13 171 3.2 8.0 0.00 0.00 0.00 80 1008.8
20260506124004 13 205 0.0 8.0 0.00 0.00 0.00 82 1008.9
20260506123504 13 179 3.2 8.0 0.00 0.00 0.00 82 1008.8
20260506123006 13 194 0.0 6.4 0.00 0.00 0.00 82 1008.9
20260506122504 13 159 1.6 6.4 0.00 0.00 0.00 82 1009.0
20260506122004 13 221 0.0 3.2 0.00 0.00 0.00 82 1008.8